Simultaneous Nadir Overpasses (SNOs) Predictions

Prediction of SNOs between AQUA and METOP-C Satellite Orbit:

Table of predicted SNOs for the next 14.0 days since TLE Epoch: 2/15/2019
Index Date (AQUA) Time (AQUA) Lat,Lon (AQUA) SZA (AQUA ) Date (METOP-C) Time (METOP-C) Lat,Lon (METOP-C) SZA (METOP-C ) Distance(km) Time Diff (sec)
1 02/17/2019 05:31:31 73.77, 91.50 85.96 02/17/2019 05:30:22 73.74, 91.48 85.94 3.33 69
2 02/17/2019 06:20:58 -73.82,-100.98 94.00 02/17/2019 06:21:03 -73.81,-101.03 94.01 2.03 5
3 02/17/2019 07:10:27 73.92, 66.44 86.10 02/17/2019 07:11:40 73.92, 66.57 86.08 3.98 73
4 02/20/2019 01:05:46 73.75, 157.97 84.94 02/20/2019 01:04:45 73.77, 157.96 84.97 2.21 61
5 02/20/2019 01:55:14 -73.85, -34.61 94.97 02/20/2019 01:55:26 -73.84, -34.56 94.98 2.09 12
6 02/20/2019 02:44:48 74.21, 132.20 85.42 02/20/2019 02:45:57 74.25, 133.79 85.37 48.12 69
7 02/22/2019 20:40:02 73.74,-135.58 83.91 02/22/2019 20:39:10 73.76,-135.67 83.94 3.43 52
8 02/22/2019 21:29:30 -73.83, 31.86 96.01 02/22/2019 21:29:51 -73.82, 31.80 96.02 2.69 21
9 02/22/2019 22:19:11 74.56,-162.20 84.78 02/22/2019 22:20:16 74.52,-159.09 84.60 92.36 65
10 02/25/2019 16:14:19 73.79, -69.25 82.92 02/25/2019 16:13:34 73.79, -69.19 82.93 1.70 45
11 02/25/2019 17:03:46 -73.83, 98.32 97.06 02/25/2019 17:04:15 -73.85, 98.27 97.04 2.71 29
12 02/28/2019 11:48:34 73.79, -2.81 81.86 02/28/2019 11:47:58 73.77, -2.82 81.85 2.38 36
13 02/28/2019 12:38:02 -73.88, 164.64 98.07 02/28/2019 12:38:38 -73.87, 164.74 98.08 3.10 36




NCC Satellite Simultaneous Nadir Overpasses (SNOs) Prediction Service
